Home   Weather   Corrientes   Past weeks
Flag for Argentina

Past Weather in Corrientes, Corrientes, Argentina — Yesterday and Last 2 Weeks

Now
59 °F

Overcast.


Feels Like: 57 °F
Forecast: 65 / 60 °F
Wind: 9 mph from Southwest

Location: Resistencia Aero.

Current Time: Jun 16, 2019 at 4:00:45 pm

Latest Report: Jun 16, 2019 at 3:00 pm


Visibility: N/A

Pressure: 30.09 "Hg

Humidity: 88%

Dew Point: 55 °F

Location of CorrientesLocation

Past Weather in Corrientes — Graph

°F

Corrientes Temperature Yesterday

Maximum temperature yesterday: 82 °F (at 2:00 pm)
Minimum temperature yesterday: 66 °F (at 9:00 pm)
Average temperature yesterday: 74 °F

High & Low Weather Summary for the Past Weeks

 TemperatureHumidityPressure
High86 °F (Jun 12, 2:00 pm)100% (Jun 1, 7:00 pm)30.30 "Hg (Jun 1, 7:00 pm)
Low48 °F (Jun 4, 5:05 am)50% (Jun 4, 3:00 pm)29.71 "Hg (Jun 13, 4:00 pm)
Average67 °F86%29.98 "Hg
* Reported Jun 1 2:00 pm — Jun 16 2:00 pm, Corrientes. Weather by CustomWeather, © 2019

Note: Actual official high and low records may vary slightly from our data, if they occured in-between our weather recording intervals... More about our weather records

Advertising

Corrientes Weather History for the Previous 24 Hours

Scroll right to see more
 ConditionsComfort  
Time TempWeatherWind HumidityBarometerVisibility
2:00 pm
Sun, Jun 16
61 °FOvercast.8 mph88%30.12 "HgN/A
1:00 pm61 °FMostly cloudy.8 mph88%30.12 "HgN/A
12:00 pm59 °FMostly cloudy.6 mph94%30.15 "HgN/A
11:00 am59 °FMostly cloudy.8 mph94%30.15 "HgN/A
10:00 am57 °FLow clouds.9 mph100%30.15 "HgN/A
9:00 am57 °FLow clouds.9 mph100%30.12 "HgN/A
8:00 am55 °FLow clouds.9 mph100%30.09 "HgN/A
7:00 am57 °FLow clouds.10 mph100%30.07 "HgN/A
6:00 am57 °FLow clouds.9 mph100%30.04 "Hg4 mi
5:00 am59 °FLow clouds.7 mph100%30.04 "HgN/A
4:00 am59 °FLow clouds.8 mph100%30.04 "HgN/A
3:00 am59 °FLow clouds.10 mph100%30.04 "HgN/A
2:00 am59 °FLow clouds.10 mph100%30.04 "HgN/A
1:00 am63 °FLow clouds.10 mph100%30.01 "HgN/A
12:00 am63 °FLow clouds.10 mph100%30.01 "HgN/A
11:00 pm
Sat, Jun 15
66 °FLow clouds.5 mph100%29.98 "HgN/A
10:00 pm66 °FLow clouds.5 mph100%29.98 "HgN/A
9:00 pm66 °FPassing clouds.3 mph100%29.95 "HgN/A
8:00 pm68 °FClear.8 mph100%29.95 "Hg10 mi
7:00 pm70 °FPassing clouds.6 mph100%29.92 "HgN/A
6:00 pm73 °FBroken clouds.7 mph94%29.89 "HgN/A
5:00 pm81 °FBroken clouds.2 mph70%29.86 "HgN/A
4:00 pm82 °FPartly sunny.8 mph66%29.86 "HgN/A
Weather by CustomWeather, © 2019

See weather overview